TimeCDT,TemperatureF,Dew PointF,Humidity,Sea Level PressureIn,VisibilityMPH,Wind Direction,Wind SpeedMPH,Gust SpeedMPH,PrecipitationIn,Events,Conditions,WindDirDegrees,DateUTC
1:00 AM,,82,,,4,SE,13.4,,,,,130,2013-04-24 06:00:00
3:50 AM,77,71,75,29.88,4,ESE,8.9,,,,,120,2013-04-24 08:50:00
5:10 AM,77.0,73.4,89,29.88,7.0,ESE,17.3,-,N/A,,Clear,120,2013-04-24 10:10:00
5:43 AM,75.2,73.4,94,29.89,7.0,East,9.2,-,N/A,,Clear,90,2013-04-24 10:43:00
6:42 AM,75.2,73.4,94,29.91,7.0,East,9.2,-,N/A,,Clear,90,2013-04-24 11:42:00
6:45 AM,74,71,89,29.91,6,East,2.2,,,,,90,2013-04-24 11:45:00
7:41 AM,75.2,73.4,94,29.93,7.0,East,11.5,-,N/A,,Clear,90,2013-04-24 12:41:00
8:47 AM,78.8,71.6,78,29.94,7.0,East,13.8,-,N/A,,Partly Cloudy,100,2013-04-24 13:47:00
9:44 AM,84.2,71.6,66,29.95,7.0,ESE,11.5,-,N/A,,Partly Cloudy,120,2013-04-24 14:44:00
9:48 AM,88,73,52,29.95,6,ESE,4.5,,,,,120,2013-04-24 14:48:00
10:41 AM,87.8,69.8,55,29.95,7.0,East,11.5,-,N/A,,Partly Cloudy,100,2013-04-24 15:41:00
11:41 AM,89.6,69.8,52,29.93,7.0,East,6.9,-,N/A,,Partly Cloudy,100,2013-04-24 16:41:00
12:45 PM,99,75,37,29.91,6,East,6.7,,,,,90,2013-04-24 17:45:00
12:45 PM,93.2,64.4,38,29.90,7.0,East,16.1,-,N/A,,Partly Cloudy,100,2013-04-24 17:45:00
1:42 PM,95.0,64.4,36,29.88,7.0,East,11.5,23.0,N/A,,Partly Cloudy,100,2013-04-24 18:42:00
2:41 PM,96.8,60.8,30,29.84,7.0,East,11.5,23.0,N/A,,Partly Cloudy,100,2013-04-24 19:41:00
3:43 PM,98.6,59.0,27,29.82,7.0,NNE,11.5,-,N/A,,Partly Cloudy,20,2013-04-24 20:43:00
3:48 PM,102,70,26,29.83,6,NNE,6.7,,,,,20,2013-04-24 20:48:00
4:42 PM,87.8,77.0,70,29.81,7.0,North,11.5,23.0,N/A,,Partly Cloudy,350,2013-04-24 21:42:00
5:40 PM,86.0,75.2,70,29.82,7.0,North,11.5,23.0,N/A,,Partly Cloudy,350,2013-04-24 22:40:00
6:41 PM,86.0,75.2,70,29.83,7.0,North,11.5,23.0,N/A,,Partly Cloudy,350,2013-04-24 23:41:00
6:50 PM,87,76,62,29.84,6,North,11.2,,,,Scattered Clouds,350,2013-04-24 23:50:00
7:44 PM,86.0,78.8,79,29.84,7.0,North,11.5,23.0,N/A,,Partly Cloudy,360,2013-04-25 00:44:00
8:42 PM,86.0,75.2,70,29.87,7.0,North,11.5,23.0,N/A,,Clear,350,2013-04-25 01:42:00
9:41 PM,86.0,71.6,62,29.89,7.0,North,11.5,23.0,N/A,,Partly Cloudy,360,2013-04-25 02:41:00
9:50 PM,86,71,53,29.92,4,NNE,6.7,,,,,30,2013-04-25 02:50:00
10:40 PM,86.0,71.6,62,29.93,7.0,NNE,11.5,23.0,N/A,,Clear,20,2013-04-25 03:40:00
11:40 PM,86.0,71.6,62,29.95,7.0,East,11.5,23.0,N/A,,Clear,100,2013-04-25 04:40:00